Regional Weather Roundup
Issued by NWS State College, PA

Home | Current Version | Previous Version | Text Only | Print | Product List | Glossary On
Versions: 1 2 3 4 5 6 7 8 9 10 11 12 13 14 15 16 17 18 19 20 21 22 23 24 25 26 27 28 29 30 31 32 33 34 35 36 37 38 39 40 41 42 43 44 45 46 47 48 49 50
000
ASUS41 KCTP 252203
RWRCTP

REGIONAL WEATHER ROUNDUP
NATIONAL WEATHER SERVICE STATE COLLEGE PA
600 PM EDT MON MAY 25 2015

Note: "fair" indicates few or no clouds below 12,000 feet with no
significant weather and/or obstructions to visibility.

* = STATION THAT DOES NOT REPORT PRECIPITATION /E.G. RAIN...SNOW...ETC/
    THUNDER OR FOG.

PAZ002>004-007>009-013>016-020>023-029>032-252300-
WESTERN PENNSYLVANIA

CITY           SKY/WX    TMP DP  RH WIND       PRES   REMARKS
ERIE           LGT RAIN  73  64  73 W9        30.04R
MEADVILLE      CLOUDY    79  59  50 SW12G18   30.08R
FRANKLIN*      PTSUNNY   79  59  50 SW14G25   30.11F
NEW CASTLE     MOCLDY    82  63  52 SW12G17   30.10S
BEAVER COUNTY  NOT AVBL
BUTLER*        MOSUNNY   81  59  47 SW13G24   30.14S
PITTSBURGH INT PTSUNNY   82  59  45 S14G21    30.13S
PITTSBURGH     PTSUNNY   81  55  40 SW16G26   30.13S
INDIANA*       PTSUNNY   81  59  47 W14       30.17S
LATROBE        MOSUNNY   82  59  44 SW10      30.16S
WASHINGTON CO* PTSUNNY   79  61  53 SW7       30.16F
$$

PAZ004>006-010>012-017>019-024>028-033>037-041-042-045-046-049>053-252300-
CENTRAL PENNSYLVANIA

CITY           SKY/WX    TMP DP  RH WIND       PRES   REMARKS
BRADFORD       PTSUNNY   78  57  48 SW10G18   30.13F
DUBOIS         PTSUNNY   80  56  43 SW12G23   30.13F
CLEARFIELD     PTSUNNY   82  52  35 SW12      30.14S
JOHNSTOWN      MOSUNNY   80  51  36 S14G21    30.18F
ALTOONA        MOSUNNY   83  55  38 S14G21    30.16S
STATE COLLEGE  MOSUNNY   81  57  44 S10       30.13S
WILLIAMSPORT   PTSUNNY   84  57  39 S14G23    30.09F
SELINSGROVE    MOSUNNY   84  58  40 SW13G21   30.13F
FT INDIANTOWN  PTSUNNY   84  58  42 S10       30.15F
CAPITAL CITY   PTSUNNY   84  59  42 S10G18    30.14F
HARRISBURG     PTSUNNY   84  59  42 SW12G17   30.14F
YORK           MOSUNNY   82  59  45 SW10G18   30.17S
$$

PAZ038>040-043-044-047-048-054-055-060>062-067>071-252300-
EASTERN PENNSYLVANIA

CITY           SKY/WX    TMP DP  RH WIND       PRES   REMARKS
SCRANTON       MOSUNNY   86  53  32 SW12G24   30.13S
MOUNT POCONO   SUNNY     79  51  37 SW13G21   30.20S
ALLENTOWN      MOSUNNY   84  58  40 S15G24    30.16S
QUAKERTOWN*    PTCLDY    81  59  47 SW14G21   30.19S
READING        PTSUNNY   83  58  42 S14G22    30.15S
LANCASTER      PTSUNNY   80  60  50 S10       30.17S
COATESVILLE    MOCLDY    77  61  57 S6        30.21F
POTTSTOWN      MOSUNNY   80  58  46 S9G20     30.20S
BLUE BELL      MOSUNNY   82  55  39 SW13G21   30.18F
DOYLESTOWN     SUNNY     82  53  36 SW13G23   30.17S
WILLOW GROVE   NOT AVBL
NORTH PHILA    SUNNY     84  52  33 SW18G24   30.19F
PHILADELPHIA   PTSUNNY   83  56  39 S18G24    30.19F
$$


USA.gov is the U.S. government's official web portal to all federal, state and local government web resources and services.